+ View the NASA Portal
+ Center for Near-Earth Object Studies
IMPORTANT:
The SSD Announcement email list is now available. Major changes are coming in the near future, including possible hostname and/or URL changes. To be notified of such changes, subscribe to this email list.
Please visit
this page
for more details.
Don't show this message again
JPL Small-Body Database Browser
Search:
[
help
]
212562 (2006 SY74)
Classification:
Main-belt Asteroid
SPK-ID:
2212562
[
Ephemeris
|
Orbit Diagram
|
Orbital Elements
|
Mission Design
|
Physical Parameters
|
Discovery Circumstances
|
Close-Approach Data
]
[ show orbit diagram ]
Orbital Elements at Epoch 2458600.5 (2019-Apr-27.0) TDB
Reference:
JPL 12
(heliocentric ecliptic J2000)
Element
Value
Uncertainty (1-sigma)
Units
e
.04352030164163762
5.0313e-08
a
2.866138588977569
3.0582e-08
au
q
2.741403373038528
1.5313e-07
au
i
3.202610865109576
5.0737e-06
deg
node
83.38728812180878
0.00010451
deg
peri
214.4114363677255
0.00012177
deg
M
292.5969999219449
6.2595e-05
deg
t
p
2458932.334038791119
(2020-Mar-23.83403879)
0.0003087
TDB
period
1772.328439779586
4.85
2.8366e-05
7.766e-08
d
yr
n
.2031226221505372
3.251e-09
deg/d
Q
2.990873804916611
3.1913e-08
au
Orbit Determination Parameters
# obs. used (total)
208
data-arc span
6417 days (17.57 yr)
first obs. used
2001-10-15
last obs. used
2019-05-11
planetary ephem.
DE431
SB-pert. ephem.
SB431-N16
condition code
0
norm. resid. RMS
.55055
source
ORB
producer
Otto Matic
solution date
2019-May-30 08:20:21
Additional Information
Earth MOID
= 1.72553 au
Jupiter MOID
= 2.09252 au
T_jup
= 3.296
[ hide covariance matrix ]
Orbital Elements at Epoch 2457068.5 (2015-Feb-15.0) TDB
Reference:
JPL 12
(heliocentric ecliptic J2000)
Element
Value
Uncertainty (1-sigma)
Units
e
.04280752020019583
5.0492e-08
q
2.742886954009302
1.5335e-07
au
t
p
2457168.261911294625
(2015-May-25.76191129)
0.00031112
TDB
node
83.39933688289771
0.00010455
deg
peri
215.9507694665205
0.00012223
deg
i
3.202419443827026
5.0726e-06
deg
Orbit Determination Parameters
# obs. used (total)
208
data-arc span
6417 days (17.57 yr)
first obs. used
2001-10-15
last obs. used
2019-05-11
planetary ephem.
DE431
SB-pert. ephem.
SB431-N16
condition code
0
norm. resid. RMS
.55055
source
ORB
producer
Otto Matic
solution date
2019-May-30 08:20:21
Additional Information
Jupiter MOID
= 2.09252 au
T_jup
= 3.296
Orbit Covariance (6×6)
e
q
tp
node
peri
i
e
2.549435371513266E-15
-7.603469211319203E-15
2.29447894144902E-12
9.637494821734846E-15
4.997202198056393E-13
-8.932131249235474E-16
q
-7.603469211319203E-15
2.351476882349243E-14
-6.428301569622187E-12
-2.827187872602005E-14
-1.415406237767234E-12
3.232783822956955E-15
tp
2.29447894144902E-12
-6.428301569622187E-12
9.679751598881392E-8
1.315372484099371E-10
1.975351008772194E-8
3.810864247619488E-12
node
9.637494821734846E-15
-2.827187872602005E-14
1.315372484099371E-10
1.093000164819114E-8
-1.088529556072017E-8
3.851288549652145E-11
peri
4.997202198056393E-13
-1.415406237767234E-12
1.975351008772194E-8
-1.088529556072017E-8
1.494119682893745E-8
-3.769807517590458E-11
i
-8.932131249235474E-16
3.232783822956955E-15
3.810864247619488E-12
3.851288549652145E-11
-3.769807517590458E-11
2.573176996814886E-11
[
Ephemeris
|
Orbit Diagram
|
Orbital Elements
|
Mission Design
|
Physical Parameters
|
Discovery Circumstances
|
Close-Approach Data
]
Physical Parameter Table
Parameter
Symbol
Value
Units
Sigma
Reference
Notes
absolute magnitude
H
16.3
n/a
MPO440126
212562 (2006 SY74)
Discovered 2006-Sep-19 by Spacewatch at Kitt Peak
Reference:
20090409/Numbers.arc
Last Updated:
2009-04-10
[ show close-approach data ]
[
Ephemeris
|
Orbit Diagram
|
Orbital Elements
|
Mission Design
|
Physical Parameters
|
Discovery Circumstances
|
Close-Approach Data
]
2019-Dec-06 21:02 UT
(server date/time)
Site Manager:
Ryan S. Park
Webmaster
:
Alan B. Chamberlin